This is the latest recevied weather packets stored in our database for station/object SA7NOA-14. If no packets are shown the sender has not sent any weather packets the latest 10 day(s).
| Time | Temp. | Humidity | Pressure | Rain* | Wind** | Luminosity | Snow |
|---|---|---|---|---|---|---|---|
| 1788348603 | 20.56° C | 80% | 1013.3 hPa | - | - | - | - |
| 1788347702 | 17.78° C | 80% | 1013.3 hPa | - | - | - | - |
| 1788346802 | 17.78° C | 80% | 1013.3 hPa | - | - | - | - |
| 1788345000 | 20° C | 74% | 1013.2 hPa | - | - | - | - |
| 1788344104 | 17.78° C | 74% | 1013.2 hPa | - | - | - | - |
| 1788343206 | 17.78° C | 74% | 1013.2 hPa | - | - | - | - |
| 1788342303 | 17.78° C | 74% | 1013.2 hPa | - | - | - | - |
| 1788341402 | 17.78° C | 78% | 1013.2 hPa | - | - | - | - |
| 1788340501 | 17.22° C | 78% | 1013.2 hPa | - | - | - | - |
| 1788339600 | 16.67° C | 82% | 1013.6 hPa | - | - | - | - |
| 1788338705 | 16.11° C | 82% | 1013.6 hPa | - | - | - | - |
| 1788337804 | 15° C | 85% | 1013.4 hPa | - | - | - | - |
| 1788336903 | 15° C | 85% | 1013.4 hPa | - | - | - | - |
| 1788336002 | 14.44° C | 85% | 1013.4 hPa | - | - | - | - |
| 1788335101 | 14.44° C | 85% | 1013.4 hPa | - | - | - | - |
| 1788334201 | 14.44° C | 84% | 1013.1 hPa | - | - | - | - |
| 1788333305 | 14.44° C | 84% | 1013.1 hPa | - | - | - | - |
| 1788332404 | 13.89° C | 84% | 1013.1 hPa | - | - | - | - |
| 1788331503 | 13.89° C | 84% | 1013.1 hPa | - | - | - | - |
| 1788330602 | 12.78° C | 84% | 1013.1 hPa | - | - | - | - |
| 1788329701 | 12.78° C | 84% | 1013.1 hPa | - | - | - | - |
| 1788323401 | 11.11° C | 82% | 1013.2 hPa | - | - | - | - |
| 1788322505 | 11.67° C | 82% | 1013.2 hPa | - | - | - | - |
| 1788298202 | 13.89° C | 86% | 1012.2 hPa | 0.76 mm | - | - | - |
| 1788297301 | 13.89° C | 86% | 1012.2 hPa | 0.76 mm | - | - | - |
* Rain since midnight (hover to see other rain measurements)
** Current wind speed in m/s (hover to see current wind gust speed)